Location: Hylvaty SDH
(49.9612°N, 16.4057°E)
Time: 12:41:20
(UTC+01:00)

A-11 Canister half - Pass Details

Date: 06 October 2020
Orbit: 1526 x 1683 km, 47.3° (Epoch: 28 October)

Event Time Altitude Azimuth Distance (km) Brightness Sun altitude
Rises 04:43:39 0° 288° (WNW) 4,724 - -22.8°
Reaches altitude 10° 04:47:30 10° 275° (W) 3,759 - -22.2°
Maximum altitude 04:54:20 23° 228° (SW) 2,913 - -21.2°
Exits shadow 04:55:35 22° 217° (SW) 2,953 10.0 -21.0°
Drops below altitude 10° 05:01:19 10° 181° (S) 3,837 10.9 -20.1°
Sets 05:05:20 0° 168° (SSE) 4,846 11.6 -19.5°
